Location: California Mobile Home Park
(33.7461°N, 117.9092°W)
Time: 19:37:19
(UTC+00:00)

Envisat - Pass Details

Date: 29 June 2022
Orbit: 763 x 765 km, 98.2° (Epoch: 07 August)

Event Time Altitude Azimuth Distance (km) Brightness Sun altitude
Rises 12:03:40 0° 16° (NNE) 3,235 7.1 -8.0°
Reaches altitude 10° 12:06:01 10° 20° (NNE) 2,305 6.4 -7.6°
Maximum altitude 12:11:02 61° 101° (E) 867 3.6 -6.7°
Drops below altitude 10° 12:16:01 10° 181° (S) 2,289 5.1 -5.8°
Sets 12:18:20 0° 185° (S) 3,211 5.9 -5.4°
